Location: Clairmont
(55.2667°N, 118.8000°W)
Time: 08:04:33
(UTC+00:00)

N. Korean satellite - Pass Details

Date: 29 October 2020
Orbit: 453 x 503 km, 97.2° (Epoch: 03 December)

Event Time Altitude Azimuth Distance (km) Brightness Sun altitude
Rises 12:20:26 0° 30° (NNE) 2,487 10.7 -22.4°
Reaches altitude 10° 12:23:33 10° 61° (ENE) 1,602 10.2 -21.9°
Maximum altitude 12:25:03 12° 87° (E) 1,457 10.1 -21.7°
Drops below altitude 10° 12:26:32 10° 113° (ESE) 1,594 10.0 -21.5°
Sets 12:29:37 0° 145° (SE) 2,462 10.5 -21.1°
